FW3812 Weather Reports


time (UTC)temp
C
wind
direction
speed
KPH
gust
KPH
rain 1hr
cm
rain 24hr
cm
rain mn
cm
humidity
%
barometer
mb
20260509022819 12 103 0.0 0.0 0.00 0.20 0.08 86 1006.6
20260509021746 12 103 0.0 0.0 0.00 0.20 0.08 86 1006.4
20260509020711 12 107 0.0 0.0 0.00 0.20 0.08 86 1006.5
20260509015640 13 71 0.0 0.0 0.00 0.20 0.08 85 1006.4
20260509013611 13 74 0.0 0.0 0.00 0.20 0.08 85 1006.3
20260509010400 13 51 0.0 0.0 0.00 0.20 0.08 83 1005.9
20260509005332 13 82 0.0 0.0 0.00 0.20 0.08 83 1005.9
20260509003222 13 86 0.0 0.0 0.00 0.20 0.08 82 1005.8
20260509002234 13 86 0.0 0.0 0.00 0.20 0.08 82 1005.9
20260509001225 13 53 0.0 0.0 0.00 0.20 0.08 82 1005.9
20260509000219 14 95 0.0 0.0 0.00 0.20 0.08 82 1005.9
20260508235205 14 73 0.0 0.0 0.00 0.20 0.08 81 1005.8
20260508234216 14 136 0.0 0.0 0.00 0.20 0.08 81 1005.9
20260508233208 14 98 0.0 0.0 0.00 0.20 0.08 81 1006.0
20260508232217 14 101 0.0 0.0 0.00 0.20 0.08 80 1006.1
20260508224916 14 148 0.0 0.0 0.00 0.20 0.08 81 1006.1
20260508223932 13 63 0.0 3.2 0.00 0.20 0.08 81 1006.3
20260508221804 13 138 0.0 0.0 0.00 0.20 0.08 82 1006.6
20260508215720 13 39 0.0 0.0 0.00 0.20 0.08 83 1006.5
20260508213520 13 15 0.0 0.0 0.00 0.20 0.08 84 1006.2
20260508212528 13 59 0.0 0.0 0.00 0.20 0.08 85 1006.3
20260508211518 13 75 0.0 0.0 0.00 0.20 0.08 84 1006.5
20260508210521 13 90 0.0 0.0 0.00 0.20 0.08 82 1006.8
20260508205514 14 29 0.0 0.0 0.00 0.18 0.05 78 1006.8
20260508203335 15 155 0.0 0.0 0.00 0.18 0.05 73 1006.8
20260508202332 15 155 0.0 0.0 0.00 0.18 0.05 72 1006.9
20260508201354 14 169 0.0 0.0 0.00 0.18 0.05 73 1007.0
20260508200329 15 169 0.0 0.0 0.00 0.18 0.05 73 1007.3
20260508195314 15 159 0.0 0.0 0.00 0.18 0.05 73 1007.4
20260508194312 14 167 0.0 0.0 0.00 0.18 0.05 72 1007.5
20260508193251 14 165 0.0 0.0 0.00 0.18 0.05 73 1007.7
20260508192316 14 166 0.0 0.0 0.00 0.18 0.05 73 1007.8
20260508190209 14 87 0.0 0.0 0.00 0.18 0.05 74 1008.0
20260508185151 14 103 0.0 0.0 0.00 0.18 0.05 74 1008.1
20260508184134 14 76 0.0 0.0 0.00 0.18 0.05 75 1008.1
20260508183154 14 83 0.0 0.0 0.00 0.18 0.05 73 1008.3
20260508182136 14 355 0.0 0.0 0.00 0.18 0.05 76 1008.4
20260508181155 13 5 0.0 0.0 0.00 0.18 0.05 77 1008.7
20260508180124 13 131 0.0 0.0 0.00 0.18 0.05 80 1008.8
20260508175110 12 121 0.0 0.0 0.00 0.18 0.05 80 1009.0
20260508174135 12 103 0.0 0.0 0.00 0.18 0.05 84 1009.1
20260508173117 12 113 0.0 0.0 0.00 0.18 0.05 84 1009.3
20260508172044 12 83 0.0 0.0 0.00 0.18 0.05 85 1009.5
20260508171032 12 42 0.0 0.0 0.00 0.18 0.05 84 1009.7
20260508170023 11 88 0.0 0.0 0.00 0.18 0.05 85 1009.8
20260508165039 11 103 0.0 0.0 0.00 0.18 0.05 85 1009.9
20260508164045 11 115 0.0 0.0 0.00 0.18 0.05 84 1010.2
20260508163029 12 166 0.0 0.0 0.00 0.18 0.05 83 1010.0
20260508160912 12 78 0.0 0.0 0.00 0.18 0.05 84 1010.1
20260508155930 12 70 0.0 0.0 0.00 0.18 0.05 86 1009.9
20260508153820 11 36 0.0 0.0 0.00 0.18 0.05 87 1010.1
20260508151634 11 0 0.0 0.0 0.00 0.18 0.05 89 1010.2
20260508145554 10 41 0.0 0.0 0.00 0.18 0.05 88 1010.4
20260508144553 10 109 0.0 0.0 0.00 0.15 0.03 88 1010.7
20260508142427 10 94 0.0 0.0 0.00 0.15 0.03 86 1010.9
20260508141435 11 130 0.0 0.0 0.00 0.15 0.03 86 1010.9
20260508140408 10 138 0.0 0.0 0.00 0.15 0.03 85 1010.7
20260508135419 10 112 0.0 0.0 0.00 0.15 0.03 85 1010.6
20260508134357 10 115 0.0 0.0 0.00 0.15 0.03 84 1010.6
20260508133350 10 114 0.0 0.0 0.00 0.15 0.03 85 1010.7
20260508132334 10 168 0.0 0.0 0.00 0.15 0.03 85 1010.7
20260508131332 10 35 0.0 0.0 0.00 0.15 0.03 85 1010.4
20260508130256 10 52 0.0 0.0 0.00 0.15 0.03 86 1010.5
20260508125310 10 114 0.0 0.0 0.00 0.15 0.03 86 1010.5
20260508124254 10 146 0.0 0.0 0.00 0.15 0.03 87 1010.4
20260508122136 9 55 0.0 0.0 0.00 0.15 0.03 88 1010.3
20260508120011 8 120 0.0 0.0 0.00 0.15 0.03 89 1010.3
20260508115035 8 119 0.0 0.0 0.00 0.15 0.03 90 1010.3
20260508112909 7 126 0.0 0.0 0.00 0.15 0.03 90 1010.0
20260508111926 6 126 0.0 0.0 0.00 0.15 0.03 90 1010.2
20260508105750 6 126 0.0 0.0 0.00 0.15 0.03 90 1009.9
20260508104759 6 126 0.0 0.0 0.00 0.15 0.03 90 1009.9
20260508103742 6 126 0.0 0.0 0.00 0.15 0.03 90 1009.5
20260508102733 6 126 0.0 0.0 0.00 0.13 0.00 90 1009.5
20260508101700 6 126 0.0 0.0 0.00 0.13 0.00 89 1009.3
20260508030456 8 303 0.0 0.0 0.13 0.15 0.15 87 1011.0
20260508025501 8 299 0.0 0.0 0.20 0.15 0.15 85 1010.8